#timestamp,LO_Frequency,Hit,StdDev 
1561006815.1,286046992.7,N
1561006816.0,286046992.7,N
1561006835.8,286046994.4,N
1561006855.6,286046992.8,N
1561006875.5,286046990.9,N
1561006895.3,286046996.2,N
1561006915.2,286046991.0,N
1561006935.9,286046990.9,N
1561006955.7,286046987.2,Y
1561006975.6,286046989.3,P
1561006995.4,286046988.6,P
1561007015.2,286046985.7,P
1561007035.1,286046988.2,Y
1561007036.0,286046988.2,P
1561007055.8,286047000.7,N
1561007075.7,286047006.5,N
1561007095.5,286047006.6,N
1561007115.4,286047004.6,N
1561007135.2,286047007.5,N
1561007155.0,286047007.1,N
1561007155.9,286047007.1,N
1561007175.8,286047005.1,N
1561007195.6,286047004.6,N
1561007215.5,286047007.0,N
1561007235.3,286047011.6,N
1561007255.1,286047010.8,N
1561007275.9,286047012.6,N
1561007295.7,286047017.1,N
1561007315.5,286047020.0,N
1561007335.4,286047018.8,N
1561007355.2,286047012.9,N
1561007375.1,286047010.6,N
1561007376.0,286047010.6,N
1561007395.8,286047009.0,N
1561007415.6,286047006.7,N
1561007435.5,286047012.6,N
1561007455.3,286047013.2,N
1561007475.2,286047012.6,N
1561007495.9,286047013.3,N
1561007515.7,286047014.0,N
1561007535.6,286047010.6,N
1561007555.4,286047010.9,N
1561007575.2,286047014.6,N
1561007595.1,286047014.0,N
1561007596.0,286047014.0,Y
1561007615.8,286047000.3,P
1561007635.7,286047002.0,N
1561007655.5,286047000.6,N
1561007675.3,286046999.7,N
1561007695.2,286047003.5,N
1561007715.0,286047001.7,N
1561007715.9,286047001.7,N
1561007735.8,286047003.3,N
1561007755.6,286047005.0,N
1561007775.4,286047008.7,N
1561007795.3,286047016.3,Y
1561007815.1,286047011.5,P
1561007835.9,286047011.4,N
1561007855.7,286047010.7,N
1561007875.5,286047010.6,Y
1561007895.4,286046996.7,P
1561007915.2,286046994.4,N
1561007935.0,286046992.4,N
1561007936.0,286046992.4,N
1561007955.8,286046990.7,N
1561007975.6,286046997.7,N
1561007995.5,286046998.5,N
1561008015.3,286046996.8,N
1561008035.1,286046998.1,N
1561008055.9,286047004.2,N
1561008075.7,286046998.0,N
1561008095.6,286046997.9,N
1561008115.4,286046995.7,N
1561008135.2,286046990.9,N
1561008155.1,286046986.4,N
1561008156.0,286046986.4,N
1561008175.8,286046986.8,N
1561008195.6,286046986.2,N
1561008215.5,286046984.3,N
1561008235.3,286046987.1,N
1561008255.2,286046988.3,N
1561008275.9,286046985.7,N
1561008295.7,286046987.6,N
1561008315.6,286046988.2,N
1561008335.4,286046989.2,N
1561008355.2,286046992.2,N
1561008375.1,286046997.6,N
1561008376.0,286046997.6,N
1561008395.8,286047002.4,N
1561008415.7,286047002.6,N
1561008435.5,286047004.1,N
1561008455.3,286047004.8,N
1561008475.2,286047007.2,N
1561008495.0,286047002.9,N
1561008495.9,286047002.9,N
1561008515.8,286047002.0,N
1561008535.6,286046995.2,N
1561008555.4,286046995.5,N
1561008575.3,286046991.5,N
1561008595.1,286046986.5,N
1561008615.9,286046986.6,N
1561008635.7,286046987.1,N
1561008655.5,286046989.1,N
1561008675.4,286046987.4,N
1561008695.2,286046987.9,N
1561008715.0,286046989.2,N
1561008715.9,286046989.2,N
1561008735.8,286046992.0,N
1561008755.6,286046988.9,N
1561008775.5,286046988.5,N
1561008795.3,286046990.6,N
1561008815.1,286047000.7,N
1561008835.9,286047009.8,N
1561008855.7,286047018.6,N
1561008875.5,286047018.4,N
1561008895.4,286047018.8,N
1561008915.2,286047017.9,N
1561008935.1,286047019.8,N
1561008936.0,286047019.8,N
1561008955.8,286047022.0,N
1561008975.6,286047023.4,N
1561008995.5,286047022.9,N
1561009015.3,286047023.9,N
1561009035.1,286047029.4,N
1561009055.9,286047032.9,N
1561009075.7,286047032.3,N
1561009095.6,286047033.0,N
1561009115.4,286047038.6,N
1561009135.2,286047043.1,N
1561009155.1,286047042.0,N
1561009156.0,286047042.0,N
1561009175.8,286047041.5,N
1561009195.7,286047042.4,N
1561009215.5,286047044.7,N
1561009235.3,286047045.5,N
1561009255.2,286047041.6,N
1561009275.0,286047040.4,N
1561009275.9,286047040.4,N
1561009295.8,286047038.9,N
1561009315.6,286047033.3,N
1561009335.4,286047032.4,N
1561009355.3,286047029.5,N
1561009375.1,286047026.8,N
1561009395.9,286047023.5,N
1561009415.7,286047025.2,N
1561009435.5,286047019.6,N
1561009455.4,286047015.6,N
1561009475.2,286047010.0,N
1561009495.0,286047009.8,N
1561009495.9,286047009.8,N
1561009515.8,286047013.2,N
1561009535.6,286047024.5,N
1561009555.5,286047029.2,N
1561009575.8,286047035.6,Y
1561009595.7,286047010.6,P
1561009615.5,286047020.2,N
1561009635.3,286047024.2,N
1561009655.2,286047028.5,Y
1561009675.0,286047014.0,P
1561009675.9,286047014.0,P
1561009695.8,286047012.7,P
1561009715.6,286047020.2,Y
1561009735.4,286047009.1,P
1561009755.3,286047010.4,P
1561009775.1,286047015.1,P
1561009795.9,286047022.0,Y
1561009815.7,286047009.6,P
1561009835.5,286047006.5,P
1561009855.4,286047012.6,P
1561009875.2,286047015.5,Y
1561009895.1,286047004.6,P
1561009896.0,286047004.6,N
1561009915.8,286047007.4,N
1561009935.6,286047008.4,Y
1561009955.5,286047001.7,P
1561009975.3,286047005.6,N
1561009995.1,286047008.2,P
1561010015.9,286047012.3,Y
1561010035.8,286047004.8,P
1561010055.6,286047008.7,P
1561010075.4,286047009.8,P
1561010095.3,286047014.3,Y
1561010115.1,286047008.1,P
1561010135.8,286047003.6,P
1561010155.7,286047004.1,N
1561010175.5,286047005.5,N
1561010195.4,286047005.7,Y
1561010215.2,286047003.6,P
1561010235.0,286047003.1,N
1561010235.9,286047003.1,N
1561010255.8,286047003.4,Y
1561010275.6,286047002.2,P
1561010295.5,286047002.8,P
1561010315.3,286046996.8,P
1561010335.1,286046996.8,N
1561010355.9,286047001.8,N
1561010375.7,286046997.3,N
1561010395.6,286046997.4,N
